sat.trackr.live / text

‹ back to catalog

STARLINK-36645

NORAD 67707 · 2026-025Q

PAYLOAD ACTIVE UNKNOWN

§ Identity

Operator
Country
US
Launch date
2026-02-07
Launch site
AFWTR
Launch vehicle
Mass (kg)
RCS (m²)

Purposes: comms

External: N2YO · Heavens-Above · Gunter

§ Orbital elements

Epoch: 2026-05-24T21:17:03.801984Z

Period
93.91 min
Inclination
97.2847°
Eccentricity
0.0000805
Mean motion
15.33446005 rev/d
Perigee alt
465.0 km
Apogee alt
466.1 km
Semi-major
6,843.7 km
B*
3.5355e-4
RAAN
256.5590°
Arg perigee
112.9399°
Mean anomaly
247.1928°
Rev number
1,769

§ Raw data

STARLINK-366451 67707U 26025Q   26144.88684956  .00011356  00000+0  35355-3 0  99922 67707  97.2847 256.5590 0000805 112.9399 247.1928 15.33446005 17692

JSON: /api/v1/satellites/67707 · /tle

For live sub-satellite position, see the globe view (requires WebGL).

§ Visibility from observer

Set your observer location to see the next 7 days of passes ≥ 10°. The values pass through the URL so the page stays shareable.

No JS? Fill the form by hand. The geolocation button needs JavaScript.